Torna al catalogo

STARLINK-32913

AttivoComunicazioniVLEO
NORAD 63098·PAYLOAD·🇺🇸 United States

Lanciato Feb 23, 2025 da Vandenberg Space Force Base

Loading…

Prossimi Passaggi (prossime 24 ore)

TLE

AggiornatoSource: CelesTrak SupGP

Epoca: Sep 15, 2026, 03:12 UTC

1 63098C 25037X   26258.13381944 -.00044037  00000+0 -15320-2 0  2589
2 63098  70.0009 235.0662 0003112 268.4277  40.6710 15.29598977    12

Traccia STARLINK-32913 in tempo reale con AllMySat

Download on the App Store